Location: Errabaliem
(16.8108°N, 80.4255°E)
Time: 13:14:03
(UTC+00:00)

Cosmos 1833 Rocket - Pass Details

Date: 05 August 2024
Orbit: 830 x 840 km, 71.0° (Epoch: 11 September)

Event Time Altitude Azimuth Distance (km) Brightness Sun altitude
Rises 13:41:52 0° 332° (NNW) 3,386 6.7 -8.3°
Reaches altitude 10° 13:44:24 10° 326° (NW) 2,450 6.0 -8.9°
Maximum altitude 13:49:41 43° 256° (WSW) 1,167 3.9 -10.1°
Drops below altitude 10° 13:54:57 10° 186° (S) 2,442 5.0 -11.2°
Sets 13:57:29 0° 179° (S) 3,373 5.6 -11.8°
